| time (UTC) | temp C | wind direction | speed KPH | gust KPH | rain 1hr cm | rain 24hr cm | rain mn cm | humidity % | barometer mb |
| 20260510043405 | 24 | 117 | 4.8 | 22.5 | 0.03 | 0.20 | 0.20 | 88 | 1011.7 |
| 20260510042904 | 24 | 131 | 8.0 | 24.1 | 0.03 | 0.20 | 0.20 | 88 | 1011.9 |
| 20260510042404 | 25 | 134 | 8.0 | 24.1 | 0.08 | 0.20 | 0.20 | 88 | 1012.0 |
| 20260510040905 | 25 | 134 | 4.8 | 19.3 | 0.20 | 0.20 | 0.20 | 88 | 1012.1 |
| 20260510040404 | 25 | 137 | 8.0 | 19.3 | 0.20 | 0.20 | 0.20 | 88 | 1012.1 |
| 20260510035905 | 25 | 107 | 3.2 | 12.9 | 0.20 | 0.20 | 0.20 | 87 | 1012.1 |
| 20260510035403 | 25 | 92 | 3.2 | 11.3 | 0.20 | 0.20 | 0.20 | 87 | 1012.0 |
| 20260510034904 | 25 | 85 | 1.6 | 4.8 | 0.20 | 0.20 | 0.20 | 87 | 1012.0 |
| 20260510034404 | 25 | 129 | 0.0 | 4.8 | 0.20 | 0.20 | 0.20 | 86 | 1011.9 |
| 20260510033905 | 25 | 80 | 1.6 | 11.3 | 0.20 | 0.20 | 0.20 | 86 | 1011.8 |
| 20260510033404 | 25 | 148 | 1.6 | 16.1 | 0.18 | 0.18 | 0.18 | 86 | 1011.6 |
| 20260510032404 | 25 | 143 | 3.2 | 11.3 | 0.13 | 0.13 | 0.13 | 86 | 1011.5 |
| 20260510031905 | 25 | 158 | 3.2 | 11.3 | 0.00 | 0.00 | 0.00 | 85 | 1011.8 |
| 20260510030904 | 25 | 80 | 3.2 | 16.1 | 0.00 | 0.00 | 0.00 | 85 | 1011.9 |
| 20260510030405 | 25 | 76 | 6.4 | 16.1 | 0.00 | 0.00 | 0.00 | 85 | 1011.9 |
| 20260510025904 | 26 | 62 | 6.4 | 24.1 | 0.00 | 0.00 | 0.00 | 85 | 1011.9 |
| 20260510025405 | 26 | 67 | 3.2 | 24.1 | 0.00 | 0.00 | 0.00 | 84 | 1011.7 |
| 20260510024904 | 26 | 99 | 4.8 | 24.1 | 0.00 | 0.00 | 0.00 | 84 | 1011.6 |
| 20260510024405 | 26 | 120 | 4.8 | 20.9 | 0.00 | 0.00 | 0.00 | 84 | 1011.4 |
| 20260510023904 | 26 | 140 | 8.0 | 20.9 | 0.00 | 0.00 | 0.00 | 84 | 1011.3 |
| 20260510023404 | 26 | 98 | 4.8 | 12.9 | 0.00 | 0.00 | 0.00 | 84 | 1011.2 |
| 20260510022904 | 26 | 98 | 4.8 | 12.9 | 0.00 | 0.00 | 0.00 | 83 | 1011.1 |
| 20260510022403 | 26 | 124 | 4.8 | 19.3 | 0.00 | 0.00 | 0.00 | 83 | 1011.1 |
| 20260510021904 | 26 | 135 | 6.4 | 19.3 | 0.00 | 0.00 | 0.00 | 82 | 1011.1 |
| 20260510020905 | 26 | 145 | 6.4 | 19.3 | 0.00 | 0.00 | 0.00 | 81 | 1010.7 |
| 20260510020405 | 26 | 139 | 6.4 | 19.3 | 0.00 | 0.00 | 0.00 | 80 | 1010.6 |
| 20260510015905 | 26 | 145 | 8.0 | 22.5 | 0.00 | 0.00 | 0.00 | 80 | 1010.3 |
| 20260510015404 | 26 | 149 | 8.0 | 22.5 | 0.00 | 0.00 | 0.00 | 79 | 1009.9 |
| 20260510014904 | 27 | 141 | 9.7 | 22.5 | 0.00 | 0.00 | 0.00 | 77 | 1009.8 |
| 20260510014404 | 27 | 160 | 6.4 | 19.3 | 0.00 | 0.00 | 0.00 | 75 | 1009.8 |
| 20260510013404 | 27 | 171 | 4.8 | 14.5 | 0.00 | 0.00 | 0.00 | 74 | 1009.6 |
| 20260510012904 | 27 | 173 | 6.4 | 14.5 | 0.00 | 0.00 | 0.00 | 71 | 1009.6 |
| 20260510012403 | 27 | 174 | 4.8 | 16.1 | 0.00 | 0.00 | 0.00 | 69 | 1009.4 |
| 20260510011904 | 27 | 174 | 4.8 | 19.3 | 0.00 | 0.00 | 0.00 | 69 | 1009.2 |
| 20260510011404 | 27 | 182 | 8.0 | 19.3 | 0.00 | 0.00 | 0.00 | 69 | 1008.9 |
| 20260510010904 | 27 | 156 | 9.7 | 16.1 | 0.00 | 0.00 | 0.00 | 69 | 1008.8 |
| 20260510010405 | 28 | 148 | 4.8 | 19.3 | 0.00 | 0.00 | 0.00 | 69 | 1008.7 |
| 20260510005904 | 28 | 145 | 4.8 | 19.3 | 0.00 | 0.00 | 0.00 | 70 | 1008.6 |
| 20260510005404 | 28 | 145 | 8.0 | 19.3 | 0.00 | 0.00 | 0.00 | 70 | 1008.6 |
| 20260510004404 | 28 | 152 | 4.8 | 19.3 | 0.00 | 0.00 | 0.00 | 70 | 1008.5 |
| 20260510003904 | 28 | 150 | 6.4 | 19.3 | 0.00 | 0.00 | 0.00 | 69 | 1008.4 |
| 20260510003405 | 28 | 148 | 3.2 | 11.3 | 0.00 | 0.00 | 0.00 | 67 | 1008.4 |
| 20260510002905 | 28 | 148 | 6.4 | 11.3 | 0.00 | 0.00 | 0.00 | 66 | 1008.5 |
| 20260510002403 | 28 | 148 | 6.4 | 11.3 | 0.00 | 0.00 | 0.00 | 65 | 1008.4 |
| 20260510001404 | 29 | 148 | 4.8 | 14.5 | 0.00 | 0.00 | 0.00 | 64 | 1008.4 |
| 20260510000405 | 30 | 148 | 1.6 | 11.3 | 0.00 | 0.00 | 0.00 | 64 | 1008.2 |
| 20260509235404 | 30 | 148 | 3.2 | 11.3 | 0.00 | 0.00 | 0.00 | 63 | 1008.1 |
| 20260509234903 | 30 | 148 | 1.6 | 12.9 | 0.00 | 0.00 | 0.00 | 63 | 1008.0 |
| 20260509233904 | 31 | 148 | 4.8 | 14.5 | 0.00 | 0.00 | 0.00 | 62 | 1008.0 |
| 20260509233403 | 31 | 149 | 4.8 | 19.3 | 0.00 | 0.00 | 0.00 | 61 | 1007.9 |
| 20260509232404 | 32 | 142 | 4.8 | 14.5 | 0.00 | 0.00 | 0.00 | 60 | 1007.9 |
| 20260509231405 | 32 | 141 | 1.6 | 14.5 | 0.00 | 0.00 | 0.00 | 60 | 1008.2 |
| 20260509230904 | 32 | 143 | 3.2 | 14.5 | 0.00 | 0.00 | 0.00 | 60 | 1008.1 |
| 20260509230404 | 32 | 148 | 6.4 | 19.3 | 0.00 | 0.00 | 0.00 | 60 | 1008.0 |
| 20260509225904 | 32 | 149 | 9.7 | 19.3 | 0.00 | 0.00 | 0.00 | 61 | 1008.1 |
| 20260509225404 | 32 | 150 | 4.8 | 12.9 | 0.00 | 0.00 | 0.00 | 61 | 1008.0 |
| 20260509224904 | 32 | 150 | 4.8 | 11.3 | 0.00 | 0.00 | 0.00 | 61 | 1007.8 |
| 20260509224404 | 32 | 150 | 3.2 | 16.1 | 0.00 | 0.00 | 0.00 | 62 | 1007.7 |
| 20260509223905 | 32 | 150 | 4.8 | 16.1 | 0.00 | 0.00 | 0.00 | 61 | 1007.7 |
| 20260509223404 | 32 | 150 | 8.0 | 16.1 | 0.00 | 0.00 | 0.00 | 61 | 1007.8 |
| 20260509222904 | 32 | 150 | 8.0 | 19.3 | 0.00 | 0.00 | 0.00 | 61 | 1007.8 |
| 20260509222404 | 33 | 150 | 3.2 | 19.3 | 0.00 | 0.00 | 0.00 | 59 | 1007.9 |
| 20260509220904 | 33 | 165 | 4.8 | 14.5 | 0.00 | 0.00 | 0.00 | 58 | 1007.6 |
| 20260509220404 | 34 | 167 | 3.2 | 14.5 | 0.00 | 0.00 | 0.00 | 56 | 1007.6 |
| 20260509215904 | 34 | 168 | 4.8 | 14.5 | 0.00 | 0.00 | 0.00 | 55 | 1007.6 |
| 20260509215404 | 34 | 168 | 6.4 | 14.5 | 0.00 | 0.00 | 0.00 | 54 | 1007.6 |
| 20260509214904 | 35 | 179 | 3.2 | 11.3 | 0.00 | 0.00 | 0.00 | 55 | 1007.6 |
| 20260509213905 | 35 | 179 | 3.2 | 19.3 | 0.00 | 0.00 | 0.00 | 54 | 1007.6 |
| 20260509213404 | 35 | 190 | 6.4 | 16.1 | 0.00 | 0.00 | 0.00 | 54 | 1007.5 |
| 20260509212404 | 35 | 211 | 3.2 | 8.0 | 0.00 | 0.00 | 0.00 | 51 | 1007.5 |
| 20260509211904 | 35 | 214 | 3.2 | 9.7 | 0.00 | 0.00 | 0.00 | 49 | 1007.5 |
| 20260509211404 | 36 | 215 | 1.6 | 11.3 | 0.00 | 0.00 | 0.00 | 50 | 1007.6 |
| 20260509210905 | 36 | 215 | 4.8 | 11.3 | 0.00 | 0.00 | 0.00 | 52 | 1007.6 |
| 20260509210405 | 35 | 230 | 1.6 | 4.8 | 0.00 | 0.00 | 0.00 | 53 | 1007.5 |
| 20260509205905 | 35 | 230 | 1.6 | 9.7 | 0.00 | 0.00 | 0.00 | 53 | 1007.7 |
| 20260509205404 | 36 | 229 | 3.2 | 9.7 | 0.00 | 0.00 | 0.00 | 51 | 1007.7 |
| 20260509204904 | 36 | 231 | 1.6 | 9.7 | 0.00 | 0.00 | 0.00 | 53 | 1007.7 |
| 20260509204404 | 36 | 245 | 4.8 | 9.7 | 0.00 | 0.00 | 0.00 | 53 | 1007.8 |
| 20260509203904 | 35 | 270 | 3.2 | 4.8 | 0.00 | 0.00 | 0.00 | 52 | 1007.8 |
| 20260509202904 | 35 | 271 | 3.2 | 11.3 | 0.00 | 0.00 | 0.00 | 56 | 1007.9 |
| 20260509202404 | 35 | 272 | 3.2 | 11.3 | 0.00 | 0.00 | 0.00 | 54 | 1007.9 |
| 20260509201904 | 35 | 248 | 1.6 | 8.0 | 0.00 | 0.00 | 0.00 | 54 | 1007.9 |
| 20260509201404 | 35 | 250 | 3.2 | 8.0 | 0.00 | 0.00 | 0.00 | 56 | 1008.0 |
| 20260509200904 | 34 | 260 | 1.6 | 8.0 | 0.00 | 0.00 | 0.00 | 59 | 1008.1 |
| 20260509200404 | 34 | 265 | 0.0 | 8.0 | 0.00 | 0.00 | 0.00 | 57 | 1008.3 |
| 20260509195904 | 34 | 265 | 0.0 | 1.6 | 0.00 | 0.00 | 0.00 | 50 | 1008.4 |
| 20260509195404 | 34 | 265 | 0.0 | 3.2 | 0.00 | 0.00 | 0.00 | 50 | 1008.4 |
| 20260509194903 | 35 | 265 | 0.0 | 4.8 | 0.00 | 0.00 | 0.00 | 49 | 1008.4 |
| 20260509194404 | 35 | 265 | 1.6 | 4.8 | 0.00 | 0.00 | 0.00 | 48 | 1008.4 |
| 20260509193904 | 35 | 265 | 1.6 | 4.8 | 0.00 | 0.00 | 0.00 | 50 | 1008.4 |
| 20260509193404 | 35 | 266 | 1.6 | 8.0 | 0.00 | 0.00 | 0.00 | 50 | 1008.4 |
| 20260509192905 | 34 | 266 | 3.2 | 8.0 | 0.00 | 0.00 | 0.00 | 53 | 1008.4 |
| 20260509192403 | 34 | 246 | 3.2 | 8.0 | 0.00 | 0.00 | 0.00 | 52 | 1008.4 |
| 20260509191403 | 33 | 229 | 1.6 | 4.8 | 0.00 | 0.00 | 0.00 | 52 | 1008.4 |
| 20260509190904 | 33 | 229 | 1.6 | 4.8 | 0.00 | 0.00 | 0.00 | 55 | 1008.4 |
| 20260509190403 | 33 | 229 | 0.0 | 4.8 | 0.00 | 0.00 | 0.00 | 56 | 1008.5 |
| 20260509185905 | 33 | 229 | 1.6 | 4.8 | 0.00 | 0.00 | 0.00 | 53 | 1008.7 |
| 20260509185404 | 33 | 229 | 1.6 | 4.8 | 0.00 | 0.00 | 0.00 | 54 | 1008.8 |
| 20260509184903 | 33 | 223 | 3.2 | 4.8 | 0.00 | 0.00 | 0.00 | 54 | 1008.7 |
| 20260509184404 | 33 | 220 | 1.6 | 4.8 | 0.00 | 0.00 | 0.00 | 59 | 1008.7 |
| 20260509183904 | 32 | 220 | 1.6 | 4.8 | 0.00 | 0.00 | 0.00 | 58 | 1008.7 |
| 20260509183404 | 32 | 220 | 0.0 | 4.8 | 0.00 | 0.00 | 0.00 | 63 | 1008.9 |
| 20260509182904 | 32 | 220 | 1.6 | 4.8 | 0.00 | 0.00 | 0.00 | 61 | 1009.1 |
| 20260509182403 | 32 | 220 | 3.2 | 4.8 | 0.00 | 0.00 | 0.00 | 63 | 1009.2 |
| 20260509181903 | 31 | 219 | 1.6 | 4.8 | 0.00 | 0.00 | 0.00 | 62 | 1009.3 |
| 20260509181403 | 31 | 216 | 0.0 | 4.8 | 0.00 | 0.00 | 0.00 | 65 | 1009.3 |
| 20260509180903 | 31 | 216 | 3.2 | 8.0 | 0.00 | 0.00 | 0.00 | 65 | 1009.4 |
| 20260509180404 | 30 | 216 | 1.6 | 12.9 | 0.00 | 0.00 | 0.00 | 68 | 1009.6 |
| 20260509175903 | 30 | 214 | 3.2 | 12.9 | 0.00 | 0.00 | 0.00 | 69 | 1009.7 |
| 20260509175404 | 30 | 220 | 1.6 | 4.8 | 0.00 | 0.00 | 0.00 | 70 | 1009.8 |
| 20260509174903 | 30 | 220 | 1.6 | 4.8 | 0.00 | 0.00 | 0.00 | 71 | 1010.1 |
| 20260509174403 | 29 | 220 | 0.0 | 4.8 | 0.00 | 0.00 | 0.00 | 73 | 1010.1 |
| 20260509173904 | 29 | 220 | 0.0 | 4.8 | 0.00 | 0.03 | 0.00 | 72 | 1010.2 |
| 20260509173403 | 29 | 220 | 1.6 | 4.8 | 0.00 | 0.03 | 0.00 | 73 | 1010.3 |
| 20260509172903 | 29 | 220 | 1.6 | 9.7 | 0.00 | 0.03 | 0.00 | 72 | 1010.3 |
| 20260509172403 | 29 | 220 | 3.2 | 9.7 | 0.00 | 0.03 | 0.00 | 72 | 1010.2 |
| 20260509171904 | 29 | 208 | 1.6 | 9.7 | 0.00 | 0.03 | 0.00 | 72 | 1010.2 |
| 20260509171403 | 29 | 208 | 1.6 | 9.7 | 0.00 | 0.03 | 0.00 | 72 | 1010.2 |
| 20260509170904 | 29 | 207 | 1.6 | 9.7 | 0.00 | 0.03 | 0.00 | 73 | 1010.3 |
| 20260509170404 | 29 | 206 | 1.6 | 4.8 | 0.00 | 0.05 | 0.00 | 73 | 1010.3 |
| 20260509165404 | 29 | 204 | 3.2 | 9.7 | 0.00 | 0.05 | 0.00 | 72 | 1010.3 |
| 20260509163904 | 30 | 187 | 3.2 | 9.7 | 0.00 | 0.05 | 0.00 | 72 | 1010.4 |
| 20260509163404 | 30 | 162 | 1.6 | 4.8 | 0.00 | 0.05 | 0.00 | 74 | 1010.2 |
| 20260509162904 | 29 | 162 | 0.0 | 3.2 | 0.00 | 0.05 | 0.00 | 75 | 1010.2 |
| 20260509162403 | 29 | 162 | 0.0 | 0.0 | 0.00 | 0.08 | 0.00 | 75 | 1010.1 |
| 20260509161903 | 28 | 162 | 0.0 | 0.0 | 0.00 | 0.08 | 0.00 | 76 | 1010.1 |
| 20260509161403 | 28 | 162 | 0.0 | 1.6 | 0.00 | 0.08 | 0.00 | 76 | 1010.1 |
| 20260509160903 | 28 | 162 | 0.0 | 3.2 | 0.00 | 0.08 | 0.00 | 78 | 1010.0 |
| 20260509160404 | 28 | 162 | 1.6 | 3.2 | 0.00 | 0.08 | 0.00 | 79 | 1010.2 |
| 20260509155903 | 27 | 162 | 0.0 | 0.0 | 0.00 | 0.08 | 0.00 | 80 | 1010.2 |
| 20260509155404 | 27 | 162 | 0.0 | 0.0 | 0.00 | 0.08 | 0.00 | 80 | 1010.4 |
| 20260509154904 | 27 | 162 | 0.0 | 1.6 | 0.00 | 0.08 | 0.00 | 82 | 1010.5 |
| 20260509154403 | 27 | 162 | 0.0 | 8.0 | 0.00 | 0.08 | 0.00 | 83 | 1010.3 |
| 20260509153903 | 26 | 161 | 0.0 | 12.9 | 0.00 | 0.08 | 0.00 | 83 | 1010.1 |
| 20260509153405 | 26 | 150 | 3.2 | 12.9 | 0.00 | 0.08 | 0.00 | 84 | 1009.7 |
| 20260509152903 | 26 | 178 | 4.8 | 12.9 | 0.00 | 0.08 | 0.00 | 85 | 1009.8 |
| 20260509152403 | 26 | 164 | 3.2 | 11.3 | 0.00 | 0.08 | 0.00 | 85 | 1009.9 |
| 20260509151903 | 26 | 166 | 6.4 | 11.3 | 0.00 | 0.08 | 0.00 | 85 | 1009.8 |
| 20260509150903 | 26 | 181 | 4.8 | 8.0 | 0.00 | 0.08 | 0.00 | 86 | 1009.9 |
| 20260509150403 | 26 | 182 | 3.2 | 8.0 | 0.00 | 0.08 | 0.00 | 86 | 1009.5 |
| 20260509145903 | 26 | 185 | 3.2 | 4.8 | 0.00 | 0.08 | 0.00 | 86 | 1009.8 |
| 20260509144403 | 25 | 190 | 3.2 | 4.8 | 0.00 | 0.08 | 0.00 | 88 | 1010.2 |
| 20260509143403 | 25 | 191 | 1.6 | 8.0 | 0.00 | 0.08 | 0.00 | 89 | 1010.3 |
| 20260509142903 | 25 | 187 | 1.6 | 11.3 | 0.00 | 0.08 | 0.00 | 89 | 1010.4 |
| 20260509142403 | 25 | 179 | 3.2 | 11.3 | 0.00 | 0.08 | 0.00 | 90 | 1010.2 |
| 20260509141904 | 25 | 180 | 3.2 | 8.0 | 0.00 | 0.08 | 0.00 | 90 | 1010.0 |
| 20260509141403 | 25 | 193 | 1.6 | 8.0 | 0.00 | 0.08 | 0.00 | 90 | 1010.1 |
| 20260509140404 | 25 | 193 | 1.6 | 4.8 | 0.00 | 0.08 | 0.00 | 91 | 1010.1 |
| 20260509135404 | 25 | 193 | 0.0 | 4.8 | 0.00 | 0.08 | 0.00 | 91 | 1010.1 |
| 20260509134903 | 25 | 193 | 0.0 | 4.8 | 0.00 | 0.08 | 0.00 | 91 | 1010.1 |
| 20260509134405 | 25 | 193 | 1.6 | 4.8 | 0.00 | 0.08 | 0.00 | 91 | 1009.9 |
| 20260509133903 | 25 | 192 | 0.0 | 3.2 | 0.00 | 0.08 | 0.00 | 91 | 1009.9 |
| 20260509133404 | 25 | 192 | 0.0 | 3.2 | 0.00 | 0.08 | 0.00 | 92 | 1009.9 |
| 20260509132904 | 25 | 192 | 0.0 | 3.2 | 0.00 | 0.08 | 0.00 | 91 | 1010.2 |
| 20260509132403 | 24 | 192 | 0.0 | 3.2 | 0.00 | 0.08 | 0.00 | 91 | 1010.5 |
| 20260509131905 | 24 | 192 | 0.0 | 3.2 | 0.00 | 0.08 | 0.00 | 91 | 1010.5 |
| 20260509131404 | 24 | 192 | 0.0 | 3.2 | 0.00 | 0.08 | 0.00 | 91 | 1010.3 |
| 20260509130904 | 24 | 192 | 1.6 | 4.8 | 0.00 | 0.08 | 0.00 | 91 | 1010.3 |
| 20260509125904 | 24 | 192 | 1.6 | 8.0 | 0.00 | 0.08 | 0.00 | 91 | 1010.0 |
| 20260509125404 | 24 | 188 | 1.6 | 8.0 | 0.00 | 0.08 | 0.00 | 91 | 1009.9 |
| 20260509124905 | 24 | 188 | 0.0 | 9.7 | 0.00 | 0.08 | 0.00 | 91 | 1010.0 |
| 20260509124403 | 24 | 187 | 3.2 | 9.7 | 0.00 | 0.08 | 0.00 | 91 | 1010.1 |
| 20260509123904 | 24 | 155 | 0.0 | 3.2 | 0.00 | 0.08 | 0.00 | 91 | 1010.1 |
| 20260509122404 | 23 | 155 | 0.0 | 0.0 | 0.00 | 0.08 | 0.00 | 91 | 1010.1 |
| 20260509121904 | 23 | 155 | 0.0 | 0.0 | 0.00 | 0.08 | 0.00 | 91 | 1009.9 |
| 20260509121404 | 23 | 155 | 0.0 | 0.0 | 0.00 | 0.08 | 0.00 | 91 | 1009.8 |
| 20260509120404 | 23 | 155 | 0.0 | 0.0 | 0.00 | 0.08 | 0.00 | 91 | 1010.0 |
| 20260509115404 | 23 | 155 | 0.0 | 0.0 | 0.00 | 0.08 | 0.00 | 91 | 1010.0 |
| 20260509114404 | 23 | 155 | 0.0 | 0.0 | 0.00 | 0.08 | 0.00 | 91 | 1010.2 |
| 20260509113404 | 23 | 155 | 0.0 | 0.0 | 0.00 | 0.08 | 0.00 | 91 | 1010.1 |
| 20260509112904 | 23 | 155 | 0.0 | 0.0 | 0.00 | 0.08 | 0.00 | 91 | 1010.0 |
| 20260509112404 | 23 | 155 | 0.0 | 0.0 | 0.00 | 0.08 | 0.00 | 91 | 1010.1 |
| 20260509111904 | 23 | 155 | 0.0 | 0.0 | 0.00 | 0.08 | 0.00 | 91 | 1010.1 |
| 20260509111403 | 23 | 155 | 0.0 | 0.0 | 0.00 | 0.08 | 0.00 | 91 | 1010.0 |
| 20260509110904 | 23 | 155 | 0.0 | 0.0 | 0.00 | 0.08 | 0.00 | 91 | 1009.8 |
| 20260509110405 | 23 | 155 | 0.0 | 0.0 | 0.00 | 0.08 | 0.00 | 91 | 1009.6 |
| 20260509105404 | 23 | 155 | 0.0 | 0.0 | 0.00 | 0.08 | 0.00 | 91 | 1009.4 |
| 20260509104905 | 23 | 155 | 0.0 | 0.0 | 0.00 | 0.08 | 0.00 | 91 | 1009.3 |
| 20260509104405 | 23 | 155 | 0.0 | 0.0 | 0.00 | 0.08 | 0.00 | 91 | 1009.4 |
| 20260509103904 | 23 | 155 | 0.0 | 0.0 | 0.00 | 0.08 | 0.00 | 91 | 1009.4 |
| 20260509103404 | 23 | 155 | 0.0 | 0.0 | 0.00 | 0.08 | 0.00 | 91 | 1009.5 |
| 20260509102904 | 23 | 155 | 0.0 | 0.0 | 0.00 | 0.08 | 0.00 | 91 | 1009.7 |
| 20260509101904 | 23 | 155 | 0.0 | 0.0 | 0.00 | 0.08 | 0.00 | 91 | 1009.4 |
| 20260509101405 | 23 | 155 | 0.0 | 0.0 | 0.00 | 0.08 | 0.00 | 91 | 1009.5 |
| 20260509100905 | 23 | 155 | 0.0 | 0.0 | 0.00 | 0.08 | 0.00 | 90 | 1009.7 |
| 20260509100404 | 23 | 155 | 0.0 | 0.0 | 0.00 | 0.08 | 0.00 | 90 | 1009.7 |
| 20260509095904 | 23 | 155 | 0.0 | 0.0 | 0.00 | 0.08 | 0.00 | 90 | 1009.4 |
| 20260509095404 | 23 | 155 | 0.0 | 0.0 | 0.00 | 0.08 | 0.00 | 90 | 1009.4 |
| 20260509094903 | 23 | 155 | 0.0 | 0.0 | 0.00 | 0.08 | 0.00 | 90 | 1009.2 |
| 20260509094405 | 23 | 155 | 0.0 | 0.0 | 0.00 | 0.10 | 0.00 | 90 | 1009.2 |
| 20260509093904 | 23 | 155 | 0.0 | 0.0 | 0.00 | 0.10 | 0.00 | 90 | 1009.2 |
| 20260509093404 | 23 | 155 | 0.0 | 0.0 | 0.00 | 0.10 | 0.00 | 90 | 1009.2 |
| 20260509092904 | 23 | 155 | 0.0 | 0.0 | 0.00 | 0.10 | 0.00 | 90 | 1009.2 |
| 20260509092405 | 23 | 155 | 0.0 | 0.0 | 0.00 | 0.10 | 0.00 | 90 | 1009.1 |
| 20260509091904 | 22 | 155 | 0.0 | 0.0 | 0.00 | 0.10 | 0.00 | 90 | 1009.0 |
| 20260509091404 | 22 | 155 | 0.0 | 0.0 | 0.00 | 0.10 | 0.00 | 90 | 1008.9 |
| 20260509090905 | 22 | 155 | 0.0 | 0.0 | 0.00 | 0.10 | 0.00 | 90 | 1009.0 |
| 20260509090405 | 22 | 155 | 0.0 | 0.0 | 0.00 | 0.10 | 0.00 | 90 | 1009.0 |
| 20260509085405 | 22 | 155 | 0.0 | 0.0 | 0.00 | 0.10 | 0.00 | 90 | 1009.0 |
| 20260509084904 | 23 | 155 | 0.0 | 0.0 | 0.00 | 0.10 | 0.00 | 90 | 1009.1 |
| 20260509084405 | 23 | 155 | 0.0 | 0.0 | 0.00 | 0.10 | 0.00 | 90 | 1009.0 |
| 20260509083904 | 23 | 155 | 0.0 | 0.0 | 0.00 | 0.10 | 0.00 | 90 | 1009.0 |
| 20260509083404 | 23 | 155 | 0.0 | 0.0 | 0.00 | 0.10 | 0.00 | 90 | 1009.1 |
| 20260509082904 | 23 | 155 | 0.0 | 0.0 | 0.00 | 0.10 | 0.00 | 90 | 1009.2 |
| 20260509082405 | 23 | 155 | 0.0 | 0.0 | 0.00 | 0.10 | 0.00 | 90 | 1009.1 |
| 20260509081904 | 23 | 155 | 0.0 | 0.0 | 0.00 | 0.10 | 0.00 | 90 | 1009.2 |
| 20260509081403 | 23 | 155 | 0.0 | 0.0 | 0.00 | 0.10 | 0.00 | 89 | 1009.2 |
| 20260509080904 | 23 | 155 | 0.0 | 0.0 | 0.00 | 0.10 | 0.00 | 89 | 1009.3 |
| 20260509080404 | 23 | 155 | 0.0 | 0.0 | 0.00 | 0.10 | 0.00 | 89 | 1009.3 |
| 20260509075905 | 23 | 155 | 0.0 | 0.0 | 0.00 | 0.10 | 0.00 | 89 | 1009.4 |
| 20260509075404 | 23 | 155 | 0.0 | 0.0 | 0.00 | 0.10 | 0.00 | 89 | 1009.5 |
| 20260509074904 | 23 | 155 | 0.0 | 0.0 | 0.00 | 0.10 | 0.00 | 89 | 1009.6 |
| 20260509074404 | 23 | 155 | 0.0 | 0.0 | 0.00 | 0.10 | 0.00 | 89 | 1009.6 |
| 20260509073903 | 23 | 155 | 0.0 | 0.0 | 0.00 | 0.10 | 0.00 | 89 | 1009.7 |
| 20260509073403 | 23 | 155 | 0.0 | 0.0 | 0.00 | 0.10 | 0.00 | 89 | 1009.7 |
| 20260509072905 | 23 | 155 | 0.0 | 0.0 | 0.00 | 0.10 | 0.00 | 89 | 1009.7 |
| 20260509072405 | 23 | 155 | 0.0 | 0.0 | 0.00 | 0.10 | 0.00 | 89 | 1009.8 |
| 20260509071905 | 23 | 155 | 0.0 | 0.0 | 0.00 | 0.10 | 0.00 | 89 | 1009.8 |
| 20260509071404 | 23 | 155 | 0.0 | 0.0 | 0.00 | 0.10 | 0.00 | 89 | 1009.8 |
| 20260509070404 | 23 | 155 | 0.0 | 0.0 | 0.00 | 0.10 | 0.00 | 89 | 1009.8 |
| 20260509065904 | 23 | 155 | 0.0 | 0.0 | 0.00 | 0.10 | 0.00 | 89 | 1009.6 |
| 20260509065404 | 23 | 155 | 0.0 | 0.0 | 0.00 | 0.10 | 0.00 | 89 | 1009.6 |
| 20260509064404 | 23 | 155 | 0.0 | 0.0 | 0.00 | 0.10 | 0.00 | 89 | 1009.5 |
| 20260509063904 | 23 | 155 | 0.0 | 0.0 | 0.00 | 0.10 | 0.00 | 89 | 1009.6 |
| 20260509063404 | 23 | 155 | 0.0 | 0.0 | 0.00 | 0.10 | 0.00 | 89 | 1009.6 |
| 20260509062904 | 23 | 155 | 0.0 | 0.0 | 0.00 | 0.10 | 0.00 | 89 | 1009.7 |
| 20260509061904 | 23 | 155 | 0.0 | 0.0 | 0.00 | 0.10 | 0.00 | 89 | 1010.0 |
| 20260509061405 | 23 | 155 | 0.0 | 0.0 | 0.00 | 0.10 | 0.00 | 89 | 1009.9 |
| 20260509060905 | 23 | 155 | 0.0 | 0.0 | 0.00 | 0.10 | 0.00 | 89 | 1009.8 |
| 20260509055904 | 24 | 155 | 0.0 | 0.0 | 0.00 | 0.10 | 0.00 | 89 | 1009.8 |
| 20260509055404 | 24 | 155 | 0.0 | 3.2 | 0.00 | 0.10 | 0.00 | 89 | 1009.8 |
| 20260509054905 | 24 | 155 | 0.0 | 3.2 | 0.00 | 0.10 | 0.00 | 89 | 1009.9 |
| 20260509054404 | 24 | 155 | 1.6 | 3.2 | 0.00 | 0.10 | 0.00 | 89 | 1009.9 |
| 20260509053403 | 24 | 154 | 0.0 | 3.2 | 0.00 | 0.10 | 0.00 | 89 | 1010.0 |
| 20260509052404 | 24 | 154 | 1.6 | 4.8 | 0.00 | 0.10 | 0.00 | 89 | 1010.0 |
| 20260509051904 | 24 | 155 | 1.6 | 4.8 | 0.00 | 0.10 | 0.00 | 89 | 1010.0 |
| 20260509051403 | 24 | 155 | 0.0 | 4.8 | 0.00 | 0.10 | 0.00 | 89 | 1010.1 |
| 20260509050904 | 24 | 155 | 1.6 | 4.8 | 0.00 | 0.10 | 0.00 | 89 | 1010.2 |
| 20260509050405 | 24 | 155 | 1.6 | 4.8 | 0.00 | 0.10 | 0.00 | 89 | 1010.2 |
| 20260509045405 | 24 | 154 | 1.6 | 4.8 | 0.00 | 0.10 | 0.10 | 89 | 1010.3 |
| 20260509044905 | 24 | 154 | 1.6 | 8.0 | 0.00 | 0.10 | 0.10 | 89 | 1010.3 |
| 20260509044404 | 24 | 154 | 3.2 | 9.7 | 0.00 | 0.10 | 0.10 | 89 | 1010.3 |
| 20260509043904 | 24 | 153 | 3.2 | 9.7 | 0.00 | 0.10 | 0.10 | 89 | 1010.4 |